This is the latest recevied weather packets stored in our database for station/object KJ4EBE. If no packets are shown the sender has not sent any weather packets the latest 10 day(s).
| Time | Temp. | Humidity | Pressure | Rain* | Wind** | Luminosity | Snow |
|---|---|---|---|---|---|---|---|
| 1777756445 | 25° C | 39% | 1020.2 hPa | 0 mm | - | 566 W/m² | - |
| 1777756143 | 25.56° C | 37% | 1020.1 hPa | 0 mm | - | 584 W/m² | - |
| 1777755840 | 25° C | 41% | 1020.4 hPa | 0 mm | - | 595 W/m² | - |
| 1777755537 | 25° C | 41% | 1020.3 hPa | 0 mm | - | 595 W/m² | - |
| 1777755233 | 25° C | 40% | 1020.5 hPa | 0 mm | - | 600 W/m² | - |
| 1777754930 | 25.56° C | 41% | 1020.3 hPa | 0 mm | - | 619 W/m² | - |
| 1777754627 | 25.56° C | 43% | 1020.6 hPa | 0 mm | - | 632 W/m² | - |
| 1777754325 | 25° C | 44% | 1020.3 hPa | 0 mm | - | 646 W/m² | - |
| 1777754022 | 24.44° C | 42% | 1020.6 hPa | 0 mm | - | 748 W/m² | - |
| 1777753718 | 24.44° C | 42% | 1020.5 hPa | 0 mm | - | 748 W/m² | - |
| 1777753416 | 24.44° C | 42% | 1020.6 hPa | 0 mm | - | 724 W/m² | - |
| 1777753113 | 24.44° C | 42% | 1020.6 hPa | 0 mm | - | 724 W/m² | - |
| 1777752804 | 24.44° C | 43% | 1020.9 hPa | 0 mm | - | 180 W/m² | - |
| 1777752500 | 24.44° C | 43% | 1020.8 hPa | 0 mm | - | 180 W/m² | - |
| 1777752196 | 24.44° C | 43% | 1020.5 hPa | 0 mm | - | 180 W/m² | - |
| 1777751895 | 25° C | 44% | 1020.5 hPa | 0 mm | - | 783 W/m² | - |
| 1777751591 | 23.89° C | 48% | 1020.9 hPa | 0 mm | - | 789 W/m² | - |
| 1777751288 | 23.89° C | 45% | 1020.9 hPa | 0 mm | - | 790 W/m² | - |
| 1777750984 | 23.89° C | 44% | 1021 hPa | 0 mm | - | 753 W/m² | - |
| 1777750680 | 23.89° C | 48% | 1021.1 hPa | 0 mm | - | 747 W/m² | - |
| 1777750377 | 23.33° C | 46% | 1021 hPa | 0 mm | - | 766 W/m² | - |
| 1777750077 | 23.89° C | 45% | 1020.8 hPa | 0 mm | - | 791 W/m² | - |
| 1777749776 | 23.33° C | 45% | 1020.8 hPa | 0 mm | - | 772 W/m² | - |
| 1777749472 | 23.33° C | 43% | 1020.6 hPa | 0 mm | - | 757 W/m² | - |
| 1777749170 | 23.89° C | 47% | 1020.8 hPa | 0 mm | - | 758 W/m² | - |
* Rain latest hour (hover to see other rain measurements)
** Current wind speed in m/s (hover to see current wind gust speed)